Location: Clyde
(45.1830°S, 169.3170°E)
Time: 16:34:01
(UTC+12:00)

CZ-2C R/B - Pass Details

Date: 24 January 2019
Orbit: 784 x 871 km, 98.3° (Epoch: 19 April)

Event Time Altitude Azimuth Distance (km) Brightness Sun altitude
Exits shadow 23:30:02 - 337° (NNW) 2,759 5.1 -17.7°
Reaches altitude 10° 23:30:55 10° 332° (NNW) 2,462 4.9 -17.8°
Maximum altitude 23:35:33 28° 274° (W) 1,533 4.3 -18.2°
Drops below altitude 10° 23:40:08 10° 216° (SW) 2,439 6.4 -18.7°
Sets 23:42:50 0° 204° (SSW) 3,365 7.4 -19.0°
